CZ-3B DEB, 40167

Orbit data source: Space-Track

CZ-3B DEB, 40167 is space debris in HEO originally from a launch on Sat, 04 Sep 2010 UTC launched from the Xichang Space Center, China (XSC). Debris objects in space refer to the collection of defunct objects orbiting the Earth. Examples of debris include non-operational satellites, rocket bodies, and fragments generated from explosions, collisions, or faulty payload assembly.

Loading next visibility...
Identifier
40167, 2010-042U
Orbit
HEO
Country
Flag of CNCN / PRC
Related business
Manufacturer
CALT
Mission
Spacecraft
Bus & Motor
Unknown
Mass
Unknown
Launch date (UTC)
2010-09-04 (16 years ago)
Launch vehicle
Unknown
Launch site
Xichang Space Center, China (XSC)
Object type
Payload
Rocket body
Debris
Shape & HBR
Unknown shape, 0.2 m
Radar Cross Section
Medium (>0.1 m² and <1 m²)

Expand to show TLE details & history
Last TLE update: 2 months ago

TLE from 2 months ago
0 CZ-3B DEB
1 40167U 10042U   26056.82864124  .00000177  00000-0  00000-0 0  9994
2 40167  27.1668 301.8360 7145376 281.4117  12.3487  1.93604186 93407
Epoch: 2026-02-25T19:53Z
TLE epoch observation values (Epoch: 2026-02-25T19:53:14.603Z)
Latitude
0.00091°
Longitude
-152.05738°
Altitude
5,341.704 km
Speed
7.305 km/s
True Right ascension
20h 07m 46s
True Declination
0° 00' 03"
Sunlit
Object was in daylight at epoch
Visualization orbit readout
Latitude
Unknown
Longitude
Unknown
Altitude
Unknown
Speed
Unknown
Apparent Right ascension
Unknown
Apparent Declination
Unknown
Sunlit
N/A
Visualization observer readout
Local Sidereal Time
00:54:49
Azimuth
Unknown
Elevation
Unknown
Doppler factor
Unknown
Orbital elements
Apogee altitude
40,251.054 km
Perigee altitude
1,385.403 km
Semi-major axis
27,196.365 km
Eccentricity
0.71454
Inclination
27.1668°
RAAN
301.836°
Arg. of periapsis
281.4117°
True anomaly
78.6548°
Mean anomaly
12.3487°
Eccentric anomaly
36.96971°
Mean motion
0.48392 °/min
Orbital period
743.92 mins
BSTAR
0
Loading maneuver chart data...
Computing Atmospheric mass density...
Loading historical data...
Loading historical data...
Loading historical data...
Loading historical data...
Loading historical data...
Loading historical data...
Loading historical data...

Documentation

Showing up to 5 results
|